Content
SEND FEEDBACK

Australia Flag

BARMARYEE, QUEENSLAND


Home > Oceania > Australia > Queensland
Elevation: 75 meters     Latitude: 23 06S     Longitude: 150 43E

WEATHER
 
SELECT A DAY
Number of Records: 322,642;   Date Range: 2/21/97 - 3/22/16
 
SHARE

PRINT THIS DATA

[ ← Previous Day ]
WEATHER ALMANAC - 31 JANUARY, 2013
[ Next Day → ]
[ °F ]   °C
Weather ElementAverageHighLow
Temperature27.5 °C31 °C (10:30 am)25 °C (11:00 pm)
Dewpoint22 °C24 °C (3:24 am)20 °C (5:00 pm)
Humidity70.9 %89 % (6:30 am)50 % (3:00 pm)
Barometer1009.8 hPa1011.5 hPa (9:00 am)1008.1 hPa (4:00 pm)
Wind Speed14.6 km/h22.2 km/h (12:30 pm)
Weather ElementAverage
Visibility12.2 km
Wind DirectionESE (106.4 °)

Weather ElementTotal
Precipitation---
Cooling Degree Days9.7 (Base 18.3)
Growing Degree Days18 (Base 10)
Averaged from 67 records on 31 January, 2013
WEATHER CONDITIONS BREAKOUT
WIND DIRECTION BREAKOUT
WEATHER BY HOUR - 31 JANUARY, 2013
[ °F ]   °C
Local TimeTemperatureDewpointHumidityBarometerVisibilityWind DirectionWind SpeedGust SpeedPrecipitationEventsConditions
12:00 AM27 °C23 °C79 %1010.2 hPa10 kmESE (110°)18.5 km/hScattered Clouds
12:30 AM27 °C23 °C79 %1009.1 hPa10 kmESE (110°)16.7 km/hScattered Clouds
1:00 AM27.2 °C22.8 °C72 %1009.5 hPaESE (120°)14.8 km/h
1:00 AM27 °C23 °C79 %1009.1 hPa10 kmESE (120°)14.8 km/h
1:30 AM27 °C23 °C79 %1009.1 hPa10 kmESE (120°)16.7 km/hScattered Clouds
2:00 AM27 °C23 °C79 %1009.1 hPa10 kmESE (120°)14.8 km/h
2:30 AM27 °C23 °C79 %1009.1 hPa10 kmESE (120°)14.8 km/h
3:00 AM27 °C23 °C79 %1009.1 hPa10 kmESE (120°)13 km/hScattered Clouds
3:00 AM26.7 °C23.3 °C77 %1009.5 hPaESE (120°)13 km/h
3:24 AM27 °C24 °C84 %1009.1 hPa10 kmESE (120°)13 km/hMostly Cloudy
3:30 AM27 °C23 °C79 %1009.1 hPa10 kmESE (120°)14.8 km/hMostly Cloudy
3:40 AM27 °C23 °C79 %1009.1 hPa10 kmSE (130°)14.8 km/hMostly Cloudy
4:00 AM26.7 °C23.3 °C77 %1009.5 hPaSSE (150°)9.3 km/h
4:00 AM27 °C23 °C79 %1009.1 hPa10 kmSSE (150°)9.3 km/hOvercast
4:30 AM26 °C23 °C83 %1009.1 hPa10 kmSSE (150°)11.1 km/hScattered Clouds
5:00 AM26 °C23 °C83 %1009.1 hPa10 kmSE (130°)13 km/h
5:30 AM26 °C23 °C83 %1010.2 hPa10 kmSE (130°)14.8 km/h
6:00 AM25.6 °C23.3 °C84 %1010.2 hPa30.6 kmSE (130°)14.8 km/hPartly Cloudy
6:00 AM26 °C23 °C83 %1010.2 hPa10 kmSE (130°)14.8 km/hScattered Clouds
6:30 AM26 °C24 °C89 %1010.2 hPa10 kmSE (130°)14.8 km/hMostly Cloudy
7:00 AM26.7 °C23.3 °C78 %1010.8 hPaSE (130°)16.7 km/h
7:00 AM26 °C24 °C89 %1010.2 hPa10 kmSE (130°)16.7 km/hMostly Cloudy
7:30 AM26 °C23 °C83 %1011.2 hPa10 kmESE (120°)14.8 km/hMostly Cloudy
8:00 AM27 °C24 °C84 %1011.2 hPa10 kmESE (120°)14.8 km/hMostly Cloudy
8:30 AM27 °C23 °C79 %1011.2 hPa8 kmSE (130°)20.4 km/hRainLight Rain Showers
8:43 AM27 °C23 °C79 %1011.2 hPa10 kmSE (130°)20.4 km/hOvercast
9:00 AM27.2 °C23.3 °C72 %1011.5 hPa30.6 kmSE (130°)16.7 km/hRainLight Rain Showers
9:00 AM27 °C23 °C79 %1011.2 hPa8 kmSE (130°)16.7 km/hRainLight Rain Showers
9:30 AM27 °C24 °C84 %1011.2 hPa8 kmSE (130°)16.7 km/hRainLight Rain Showers
10:00 AM28.9 °C23.3 °C65 %1011.5 hPaSE (130°)13 km/h
10:00 AM29 °C23 °C70 %1011.2 hPa10 kmSE (130°)13 km/hScattered Clouds
10:30 AM31 °C23 °C62 %1011.2 hPa10 kmESE (110°)16.7 km/hScattered Clouds
11:00 AM31 °C22 °C58 %1011.2 hPa9 kmENE (70°)18.5 km/hMostly Cloudy
11:07 AM30 °C22 °C62 %1011.2 hPa6.9 kmSE (140°)20.4 km/hRainLight Rain Showers
11:30 AM28 °C24 °C79 %1011.2 hPa9 kmESE (120°)14.8 km/hRainLight Rain Showers
12:00 PM28.9 °C21.7 °C56 %1010.8 hPa19.3 kmESE (110°)16.7 km/hRainLight Rain Showers
12:00 PM29 °C22 °C66 %1010.2 hPa10 kmESE (110°)16.7 km/hRainLight Rain Showers
12:30 PM29 °C22 °C66 %1010.2 hPa10 kmSE (130°)22.2 km/hScattered Clouds
1:00 PM28.9 °C21.7 °C57 %1010.2 hPaEast (90°)20.4 km/h
1:00 PM29 °C22 °C66 %1010.2 hPa10 kmEast (90°)20.4 km/hScattered Clouds
1:30 PM30 °C22 °C62 %1009.1 hPa10 kmNE (40°)16.7 km/h
2:00 PM30 °C22 °C62 %1009.1 hPa10 kmEast (80°)16.7 km/hMostly Cloudy
2:30 PM30 °C21 °C58 %1009.1 hPa10 kmEast (100°)16.7 km/hMostly Cloudy
3:00 PM29.4 °C20.6 °C50 %1009.1 hPa40.2 kmESE (110°)18.5 km/hMostly Cloudy
3:00 PM30 °C21 °C58 %1009.1 hPa10 kmESE (110°)18.5 km/hMostly Cloudy
3:30 PM29 °C22 °C66 %1009.1 hPa10 kmESE (110°)22.2 km/hMostly Cloudy
4:00 PM29.4 °C21.1 °C52 %1008.5 hPaEast (80°)18.5 km/h
4:00 PM29 °C21 °C62 %1008.1 hPa10 kmEast (80°)18.5 km/hScattered Clouds
4:30 PM29 °C21 °C62 %1008.1 hPa10 kmENE (60°)16.7 km/hScattered Clouds
5:00 PM29 °C20 °C58 %1008.1 hPa10 kmEast (100°)18.5 km/hPartly Cloudy
5:30 PM29 °C20 °C58 %1008.1 hPa10 kmEast (90°)16.7 km/hPartly Cloudy
6:00 PM28.3 °C20 °C52 %1008.8 hPa40.2 kmEast (100°)13 km/hPartly Cloudy
6:00 PM28 °C20 °C62 %1008.1 hPa10 kmEast (100°)13 km/hPartly Cloudy
6:30 PM28 °C21 °C66 %1008.1 hPa10 kmENE (70°)13 km/hPartly Cloudy
7:00 PM26.7 °C20.6 °C60 %1009.1 hPaEast (80°)13 km/h
7:00 PM27 °C20 °C65 %1009.1 hPa10 kmEast (80°)13 km/hPartly Cloudy
7:30 PM27 °C20 °C65 %1009.1 hPa10 kmENE (70°)13 km/hPartly Cloudy
8:00 PM27 °C20 °C65 %1010.2 hPa10 kmEast (80°)11.1 km/hPartly Cloudy
8:30 PM26 °C20 °C69 %1010.2 hPa10 kmEast (80°)11.1 km/hPartly Cloudy
9:00 PM26 °C20 °C69 %1010.2 hPa10 kmEast (80°)9.3 km/hPartly Cloudy
9:00 PM26.1 °C20.6 °C63 %1010.5 hPa40.2 kmEast (80°)9.3 km/hPartly Cloudy
9:30 PM26 °C21 °C74 %1010.2 hPa10 kmEast (90°)5.6 km/hPartly Cloudy
10:00 PM25.6 °C20.6 °C66 %1010.8 hPaEast (90°)5.6 km/h
10:00 PM26 °C20 °C69 %1010.2 hPa10 kmEast (90°)5.6 km/hPartly Cloudy
10:30 PM26 °C20 °C69 %1010.2 hPa10 kmEast (80°)7.4 km/hPartly Cloudy
11:00 PM25 °C20 °C74 %1010.2 hPa10 kmEast (90°)5.6 km/h
11:30 PM25 °C20 °C74 %1010.2 hPa10 kmCalm
Hourly data recorded from YBRK, located 0 kilometers away from Barmaryee, Queensland




STORIES FROM OUR PARTNERS